Weather Roundup
Issued by NWS Chicago, IL

Home | Current Version | Previous Version | Graphics & Text | Print | Product List | Glossary On
Versions: 1 2 3 4 5 6 7 8 9 10 11 12 13 14 15 16 17 18 19 20 21 22 23 24 25 26 27 28 29 30 31 32 33 34 35 36 37 38 39 40 41 42 43 44 45 46 47 48 49 50
000
NZUS59 KLOT 301201
HRRLOT

CHICAGO AREA WEATHER ROUNDUP
NATIONAL WEATHER SERVICE CHICAGO/ROMEOVILLE IL
700 AM CDT MON MAR 30 2015

NOTE: "FAIR" INDICATES FEW OR NO CLOUDS BELOW 12,000 FEET WITH NO
SIGNIFICANT WEATHER AND/OR OBSTRUCTIONS TO VISIBILITY.

* THESE STATIONS ARE NOT UNDER NWS QUALITY CONTROL. THEY ALSO MAY NOT
  REPORT WEATHER SUCH AS PRECIPITATION OR FOG.

ILZ005-006-012>014-019>023-301300-
NORTHEAST ILLINOIS

CITY           SKY/WX    TMP DP  RH WIND       PRES   REMARKS
OHARE          CLEAR     35  27  72 W8        30.02R WCI  29
6HR MIN TEMP:  35; 6HR MAX TEMP:  41;

MIDWAY         CLEAR     37  29  72 W7        30.03R
6HR MIN TEMP:  37; 6HR MAX TEMP:  43;

AURORA         CLEAR     30  25  81 W5        30.05R WCI  25
6HR MIN TEMP:  28; 6HR MAX TEMP:  36;

WAUKEGAN       CLEAR     35  28  75 VRB5      29.99R WCI  31
6HR MIN TEMP:  33; 6HR MAX TEMP:  38;

DUPAGE AIRPORT CLEAR     33  27  78 W8        30.03R WCI  26
6HR MIN TEMP:  33; 6HR MAX TEMP:  40;

WHEELING       CLEAR     36  27  69 W3        30.03R
6HR MIN TEMP:  36; 6HR MAX TEMP:  41;

NORTHERLY IS     N/A     40  28  63 W9          N/A
$$

WIZ051-052-058>065-066-070>072-301300-
SOUTHEAST WISCONSIN

CITY           SKY/WX    TMP DP  RH WIND       PRES   REMARKS
MILWAUKEE      CLEAR     37  27  67 W8        29.97R
6HR MIN TEMP:  35; 6HR MAX TEMP:  42;

KENOSHA*       CLEAR     32  27  81 W8        29.99R WCI  25
RACINE*        CLEAR     35  27  72 W7        29.99R WCI  29
WAUKESHA       CLEAR     36  27  69 W7        29.97R
$$

INZ001>003-010>013-019-020-301300-
NORTHWEST INDIANA

CITY           SKY/WX    TMP DP  RH WIND       PRES   REMARKS
GARY*          CLEAR     34  27  75 W7        30.03R WCI  28
MICHIGAN CITY* NOT AVBL
RENSSELAER*    NOT AVBL
$$

LMZ740>746-301300-
SOUTHERN LAKE MICHIGAN

STATION/POSITION TIME  SKY/WX   TEMP WIND        PRES    VSBY
                                AIR  DIR/SP/G
                 (UTC)          (F)  (DEG/KT/KT) (MB)    (MI)
HARRISON CRIB    1100            39  270/ 15/ 16   N/A
BURNHAM HARBOR   1200            40  270/  8/ 12   N/A
CALUMET HARBOR   1100            38  250/  5/  8 1015.0R
BURNS HARBOR     1100            38  260/ 11/ 13 1016.6R
MICHIGAN CITY    1100            36  210/ 12/ 13   N/A
$$

ABBREVIATIONS USED IN REMARKS
   TC - TEMPERATURE IN CELSIUS
  WCI - WIND CHILL INDEX
   HX - HEAT INDEX
  VSB - VISIBILITY
$$


USA.gov is the U.S. government's official web portal to all federal, state and local government web resources and services.